Regional Weather Roundup
Issued by NWS Upton, NY

Current Version | Previous Version | Graphics & Text | Print | Product List | Glossary Off
Versions: 1 2 3 4 5 6 7 8 9 10 11 12 13 14 15 16 17 18 19 20 21 22 23 24 25 26 27 28 29 30 31 32 33 34 35 36 37 38 39 40 41 42 43 44 45 46 47 48 49 50

000
ASUS41 KOKX 230907
RWROKX

REGIONAL WEATHER ROUNDUP
NATIONAL WEATHER SERVICE NEW YORK NY
500 AM EDT THU MAR 23 2017

NOTE: "FAIR" INDICATES FEW OR NO CLOUDS BELOW 12,000 FEET WITH NO
SIGNIFICANT WEATHER AND/OR OBSTRUCTIONS TO VISIBILITY.

NYZ071-072-176-178-NJZ106-104-231000-
NEW YORK CITY METRO AREA

CITY           SKY/WX    TMP DP  RH WIND       PRES   REMARKS
Central Park   CLEAR     23   6  48 VRB6      30.52R WCI  16
Wall St Helipt SUNNY     25  10  54 W7        30.52R WCI  17
LaGuardia APRT CLEAR     26   7  44 NW12      30.50R WCI  16
Kennedy INTL   CLEAR     24   4  42 NW10      30.51R WCI  14
Breezy Point     N/A    N/A N/A N/A N9          N/A
Newark/Liberty PTCLDY    24   6  46 NW8       30.51R WCI  15
Teterboro      CLEAR     24   7  48 NW13      30.50R WCI  12
$$

NYZ177-179-078>081-231000-
LONG ISLAND NEW YORK

CITY           SKY/WX    TMP DP  RH WIND       PRES   REMARKS
Jones Beach      N/A    N/A N/A N/A NW13        N/A
Matinecock PT  NOT AVBL
Farmingdale    CLEAR     21   5  50 NW5       30.49R WCI  15
MacArthur/ISP  CLEAR     22   3  44 NW13G22   30.47R WCI  10
Shirley        CLEAR     22   3  44 NW13      30.48R WCI  10
Westhampton    CLEAR     22  -3  33 N9        30.48R WCI  12
East Hampton     N/A     20  -3  35 N7        30.45R WCI  11
Montauk          N/A     23  -2  33 NW14G23   30.45R WCI  11
$$

NYZ052-065-067-231000-
HUDSON VALLEY

CITY           SKY/WX    TMP DP  RH WIND       PRES   REMARKS
White Plains   CLEAR     20   5  52 W3        30.45R
Newburgh       CLEAR     18   9  68 W9        30.47R WCI   6
Montgomery     CLEAR     17   5  59 S5        30.47R WCI  10
Poughkeepsie   CLEAR     11   3  70 CALM      30.48R
Albany         CLEAR     13   0  56 W7        30.49R WCI   3
$$

NJZ001-105-106-008-010-013-015-019>022-104-231000-
NEW JERSEY

CITY           SKY/WX    TMP DP  RH WIND       PRES   REMARKS
Newark/Liberty PTCLDY    24   6  46 NW8       30.51R WCI  15
Teterboro      CLEAR     24   7  48 NW13      30.50R WCI  12
Caldwell       CLEAR     22   6  50 NW6       30.51R WCI  14
Somerville     CLEAR     20   7  57 CALM      30.51R
Linden           N/A     23   6  48 CALM      30.52R
Sussex         PTCLDY    19   5  54 CALM      30.48R
Andover          N/A     14   6  70 CALM      30.49R
Trenton        CLEAR     21   5  50 NW6       30.52R WCI  13
Millville      CLEAR     23   6  48 N6        30.54R WCI  16
Atlantic City  CLEAR     20   3  48 NW5       30.54R WCI  13
Wrightstown    CLEAR     21   5  50 NW7       30.50R WCI  13
Toms River     PTCLDY    13   4  67 CALM      30.54R
Belmar         CLEAR     19   6  57 W7        30.52R WCI  10
$$

PAZ047>061-062-071-231000-
EASTERN PENNSYLVANIA

CITY           SKY/WX    TMP DP  RH WIND       PRES   REMARKS
Philadelphia   CLEAR     24   4  42 N7        30.56R WCI  16
Allentown      CLEAR     20   4  50 W6        30.52R WCI  12
Scranton       CLEAR     18   5  57 NW5       30.48R WCI  11
$$

CTZ002-004>006-009-010-012-RIZ004-006-007-MAZ004-011-015-231000-
SOUTHERN NEW ENGLAND
 IN CT

CITY           SKY/WX    TMP DP  RH WIND       PRES   REMARKS
Bradley INTL   CLEAR     16  -4  41 NW7       30.43R WCI   6
Hartford       CLEAR     19  -3  38 W3        30.46R
Danbury        CLEAR     16   3  56 CALM      30.46R
Wtrbury/Oxford CLEAR     18  -2  41 NW5       30.41S WCI  11
Bridgeport     CLEAR     22   2  42 NW8       30.48R WCI  12
Meriden        CLEAR     20  -4  34 NW3       30.46R
New Haven      CLEAR     21   0  39 NW8       30.47R WCI  11
Chester          N/A     19  -6  32 NW9G18    30.42R WCI   9
Groton         CLEAR     19  -3  38 W6        30.44R WCI  11
Wilimantic     CLEAR     16   0  49 CALM      30.43R

 IN RI

CITY           SKY/WX    TMP DP  RH WIND       PRES   REMARKS
Providence     CLEAR     19  -6  33 NW12      30.42R WCI   7
Block Island   CLEAR     20  -1  40 NW10G18   30.43R WCI   9
Westerly       CLEAR     19  -5  34 W3        30.44R
 IN MA

CITY           SKY/WX    TMP DP  RH WIND       PRES   REMARKS
Boston         CLEAR     19  -4  36 NW13G25   30.39R WCI   6
Worcester      CLEAR     13  -9  37 NW13      30.31R WCI  -2
Westfield      CLEAR     14  -3  47 CALM      30.41R
Provincetown   CLEAR     21   6  52 N22G30    30.36R WCI   5
Nantucket      CLEAR     20   2  45 NW22G32   30.35R WCI   3
$$

ANZ330-335-338-340-345-350-353-355-231000-
COASTAL MARINE OBSERVATIONS


STATION/POSITION TIME  SKY/WX   TEMP    WIND        PRES    VSBY  WAVE
                                AIR SEA DIR/SP/G                  HT/PER
                 (UTC)          (F)     (DEG/KT/KT) (MB)    (MI)  (FT/S)
NY HARB ENTRANCE 0750            27 41  330/ 16/ 17 1032.0          3/ 4
20 S FIRE ISLAND 0850            27 41  350/ 17/ 23 1031.9          4/ 5
GREAT SOUTH BAY  NOT AVBL
23 SSW MONTAUK P 0750            25 42              1030.5          5/ 5
15 E BARNEGAT LI 0830               42                N/A           5/ 5
HUDSON CANYON    0750            29 45  340/ 23/ 27 1030.4          8/ 7
KINGS POINT      0842            24 38              1032.5
EXECUTION ROCKS  NOT AVBL
CENTRAL LI SOUND 0830            24     340/ 14/ 19   N/A           2/ 4
EASTERN LI SOUND NOT AVBL
ROBBINS REEF     0842            24     320/ 12/ 15 1033.1
$$


>>>>>>>>>>>>>>>>>>>>>>>>>>>> KEY <<<<<<<<<<<<<<<<<<<<<<<<<<<
>                                                          <
>     SKY/WX - Sky Condition/Present Weather               <
>     TMP    - Temperature in Fahrenheit                   <
>     DP     - Dew Point in Fahrenheit                     <
>     RH     - Relative Humidity in Percent                <
>     WIND   - Direction (from) and Speed in MPH           <
>     PRES   - Mean Sea Level Pressure (inches of Hg)      <
>     WCI    - Wind Chill Index                            <
>     VSB    - VISIBILITY IN MILES                         <
>     HX     - HEAT INDEX                                  <
>     TC     - TEMPERATURE IN CELSIUS                      <
>     VRB    - VARIABLE WIND DIRECTION                     <
>                                                          <
>>>>>>>>>>>>>>>>>>>>>>>>>>>> KEY <<<<<<<<<<<<<<<<<<<<<<<<<<<



USA.gov is the U.S. government's official web portal to all federal, state and local government web resources and services.